Weather in Teplaya

Russia / Perm Krai     57°20′03″N   56°47′46″E
temp.,
°C
wind,
m/s
gust,
m/s
humid.,
%
clouds,
%
prec.,
mm/h
press.,
hPa
HPBL,
m
7 march, sun
sun723:00−17sw339753 0.0 101121
02:00−17ssw239878 0.0 101122
05:00−17ssw339788 0.1 101145
08:00−18ssw339795 0.1 101033
11:00−14sw239195 0.2 1010277
14:00−11wsw2281100 0.1 1008630
17:00−10sw1281100 0.3 1008589
20:00−14wsw2391100 0.1 100821
8 march, mon
mon823:00−18ssw349686 0.1 100937
02:00−20s449935 0.0 100855
05:00−20sse479960 0.0 1006125
08:00−15sse4995100 0.1 1003319
11:00−11s61092100 0.8 1001705
14:00−8s71191100 0.4 998865
17:00−5sse71193100 0.8 996734
20:00−8sw61390100 0.9 995593
9 march, tue
tue923:00−7sw7129499 1.4 997741
02:00−7sw71390100 0.3 999622
05:00−10sw6129296 0.4 1002420
08:00−15ssw469796 0.0 100394
11:00−11s239495 0.1 1002225
14:00−8nw0191100 0.4 1002265
17:00−7w3588100 0.8 1004600
20:00−12w3494100 0.1 100660
10 march, wed
wed1023:00−17n359499 0.2 100980
02:00−21n349870 0.0 100975
05:00−25n469877 0.0 1010110
08:00−28n469759 0.0 1011114
11:00−25n479561 0.0 1011264
14:00−20nnw578844 0.0 1012405
17:00−19nnw588322 0.0 1012501
20:00−24nnw34910 0.0 101445
11 march, thu
thu1123:00−26nw23930 0.0 101520
02:00−27w23950 0.0 101521
05:00−26wsw349624 0.0 101574
08:00−25sw489698 0.0 1015186
11:00−20wsw589399 0.0 1014466
14:00−18wsw5892100 0.3 1015560
17:00−16wsw5990100 0.4 1015585
20:00−16wsw41091100 0.1 1016430